Date String (YYYY-MM-DD hh:mm:ss) UTC,Instrument flags,Ambient pressure (hPa),Sample flow (lpm),Bypass flow (lpm),Sample temperature (°C),Ambient temperature (°C),ASC tube jacket temperature (°C),LED temperature (°C),Box temperature (°C),Sample RH (%),Span deviation,Mass concentration (μg/m³),Mass concentration (μg/m³),Mass concentration (μg/m³)
DateTimeUTC,F1_M11,P_M11,Q1_M11,Q2_M11,T1_M11,T2_M11,T3_M11,T4_M11,T5_M11,U1_M11,ZSPAN_M11,X0_M11,X2_M11,X1_M11
2022-02-01 21:00:00,,0821.2,5.00,0.00,22.2,21.5,00.0,31.3,23.8,10.3,0000.0,0010.24,0002.25,0001.34
2022-02-01 21:01:00,,0821.2,5.00,0.00,22.1,21.5,00.0,31.2,23.8,10.2,0000.0,0010.22,0002.20,0001.34
2022-02-01 21:02:00,,0821.3,4.99,0.00,22.2,22.2,00.0,31.3,24.0,10.1,0000.0,0009.68,0002.17,0001.35
2022-02-01 21:03:00,,0821.3,5.00,0.00,22.4,23.0,00.0,31.3,24.3,10.1,0000.0,0008.49,0002.08,0001.35
2022-02-01 21:04:00,,0821.3,4.98,0.00,22.5,23.4,00.0,31.4,24.5,10.0,0000.0,0008.04,0002.11,0001.36
2022-02-01 21:05:00,,0821.3,5.00,0.00,22.6,23.1,00.0,31.4,24.5,10.0,0000.0,0007.65,0002.15,0001.36
2022-02-01 21:06:00,,0821.2,5.02,0.00,22.6,22.9,00.0,31.4,24.4,10.0,0000.0,0007.39,0002.14,0001.36
2022-02-01 21:07:00,,0821.2,4.99,0.00,22.6,22.6,00.0,31.4,24.3,09.9,0000.0,0007.37,0002.16,0001.35
2022-02-01 21:08:00,,0821.2,5.00,0.00,22.5,22.4,00.0,31.4,24.2,10.0,0000.0,0008.47,0002.21,0001.35
2022-02-01 21:09:00,,0821.2,5.00,0.00,22.5,22.2,00.0,31.4,24.1,10.2,0000.0,0008.14,0002.21,0001.36
2022-02-01 21:10:00,,0821.2,5.00,0.00,22.5,22.1,00.0,31.4,24.0,10.3,0000.0,0008.18,0002.26,0001.35
2022-02-01 21:11:00,,0821.2,5.00,0.00,22.4,22.0,00.0,31.4,24.0,10.4,0000.0,0008.28,0002.27,0001.35
2022-02-01 21:12:00,,0821.2,4.99,0.00,22.4,21.8,00.0,31.4,24.0,10.3,0000.0,0008.13,0002.32,0001.35
2022-02-01 21:13:00,,0821.2,5.01,0.00,22.3,21.7,00.0,31.4,23.9,10.4,0000.0,0008.11,0002.31,0001.35
2022-02-01 21:14:00,,0821.2,4.99,0.00,22.3,21.7,00.0,31.4,23.9,10.4,0000.0,0008.43,0002.33,0001.34
2022-02-01 21:15:00,,0821.2,5.01,0.00,22.3,21.6,00.0,31.4,23.8,10.6,0000.0,0008.15,0002.33,0001.34
2022-02-01 21:16:00,,0821.2,5.00,0.00,22.2,21.6,00.0,31.3,23.8,10.8,0000.0,0008.21,0002.34,0001.33
2022-02-01 21:17:00,,0821.2,5.01,0.00,22.2,21.5,00.0,31.3,23.8,10.7,0000.0,0008.22,0002.35,0001.34
2022-02-01 21:18:00,,0821.3,4.99,0.00,22.2,21.5,00.0,31.3,23.8,10.7,0000.0,0008.20,0002.37,0001.34
2022-02-01 21:19:00,,0821.2,5.02,0.00,22.2,21.5,00.0,31.3,23.8,10.8,0000.0,0006.68,0002.37,0001.36
2022-02-01 21:20:00,,0821.2,4.99,0.00,22.2,21.5,00.0,31.3,23.8,10.9,0000.0,0007.57,0002.32,0001.36
2022-02-01 21:21:00,,0821.2,4.99,0.00,22.1,21.5,00.0,31.3,23.7,10.9,0000.0,0007.53,0002.28,0001.36
2022-02-01 21:22:00,,0821.2,5.01,0.00,22.2,21.6,00.0,31.3,23.8,11.0,0000.0,0007.34,0002.21,0001.35
2022-02-01 21:23:00,,0821.2,4.99,0.00,22.2,22.4,00.0,31.3,24.0,11.0,0000.0,0007.51,0002.14,0001.36
2022-02-01 21:24:00,,0821.2,5.01,0.00,22.4,23.2,00.0,31.4,24.3,11.0,0000.0,0007.75,0002.15,0001.36
2022-02-01 21:25:00,,0821.2,4.99,0.00,22.6,23.4,00.0,31.4,24.5,10.9,0000.0,0007.50,0002.11,0001.36
2022-02-01 21:26:00,,0821.2,5.00,0.00,22.6,23.1,00.0,31.4,24.4,10.8,0000.0,0007.48,0002.10,0001.36
2022-02-01 21:27:00,,0821.2,5.01,0.00,22.6,22.8,00.0,31.4,24.4,10.8,0000.0,0007.45,0002.05,0001.37
2022-02-01 21:28:00,,0821.2,4.98,0.00,22.6,22.6,00.0,31.4,24.3,10.8,0000.0,0007.86,0002.06,0001.36
2022-02-01 21:29:00,,0821.2,5.01,0.00,22.6,22.4,00.0,31.4,24.3,11.0,0000.0,0008.05,0002.03,0001.35
2022-02-01 21:30:00,,0821.1,4.99,0.00,22.5,22.3,00.0,31.4,24.2,11.0,0000.0,0008.31,0002.05,0001.34
2022-02-01 21:31:00,,0821.1,5.01,0.00,22.5,22.1,00.0,31.4,24.1,11.0,0000.0,0007.49,0002.07,0001.33
2022-02-01 21:32:00,,0821.1,5.00,0.00,22.5,22.0,00.0,31.4,24.1,11.1,0000.0,0007.52,0002.11,0001.34
2022-02-01 21:33:00,,0821.1,5.02,0.00,22.4,21.9,00.0,31.4,24.1,11.2,0000.0,0008.25,0002.19,0001.35
2022-02-01 21:34:00,,0821.1,5.01,0.00,22.4,21.9,00.0,31.4,24.0,11.2,0000.0,0008.43,0002.18,0001.33
2022-02-01 21:35:00,,0821.1,5.00,0.00,22.4,21.8,00.0,31.4,24.0,11.3,0000.0,0008.37,0002.15,0001.33
2022-02-01 21:36:00,,0821.1,4.98,0.00,22.4,21.7,00.0,31.4,24.0,11.4,0000.0,0008.21,0002.14,0001.33
2022-02-01 21:37:00,,0821.1,5.01,0.00,22.4,21.7,00.0,31.4,24.0,11.4,0000.0,0007.98,0002.11,0001.32
2022-02-01 21:38:00,,0821.1,4.98,0.00,22.3,21.7,00.0,31.4,24.0,11.3,0000.0,0007.82,0002.08,0001.31
2022-02-01 21:39:00,,0821.1,5.01,0.00,22.3,21.6,00.0,31.4,23.9,11.2,0000.0,0008.50,0002.07,0001.30
2022-02-01 21:40:00,,0821.1,4.99,0.00,22.3,21.6,00.0,31.4,23.9,11.2,0000.0,0008.98,0002.07,0001.30
2022-02-01 21:41:00,,0821.1,5.00,0.00,22.3,21.5,00.0,31.4,23.9,11.2,0000.0,0008.71,0002.04,0001.29
2022-02-01 21:42:00,,0821.2,4.99,0.00,22.3,21.5,00.0,31.3,23.9,11.3,0000.0,0008.78,0002.03,0001.30
2022-02-01 21:43:00,,0821.2,5.01,0.00,22.2,21.5,00.0,31.3,23.8,11.3,0000.0,0008.96,0002.01,0001.30
2022-02-01 21:44:00,,0821.3,4.99,0.00,22.2,21.5,00.0,31.3,23.8,11.4,0000.0,0008.41,0001.89,0001.29
2022-02-01 21:45:00,,0821.3,5.00,0.00,22.2,21.5,00.0,31.3,23.8,11.5,0000.0,0007.78,0001.92,0001.30
2022-02-01 21:46:00,,0821.3,5.01,0.00,22.2,21.6,00.0,31.3,23.8,11.4,0000.0,0007.62,0002.02,0001.32
2022-02-01 21:47:00,,0821.2,4.99,0.00,22.3,22.2,00.0,31.3,24.1,11.2,0000.0,0007.65,0001.98,0001.33
2022-02-01 21:48:00,,0821.2,5.01,0.00,22.4,23.1,00.0,31.4,24.3,11.2,0000.0,0007.94,0001.99,0001.33
2022-02-01 21:49:00,,0821.2,5.00,0.00,22.5,23.2,00.0,31.4,24.4,11.2,0000.0,0008.49,0002.02,0001.33
2022-02-01 21:50:00,,0821.2,5.00,0.00,22.6,23.0,00.0,31.4,24.4,11.2,0000.0,0007.64,0001.97,0001.34
2022-02-01 21:51:00,,0821.2,5.00,0.00,22.6,22.7,00.0,31.4,24.3,11.2,0000.0,0007.08,0001.94,0001.35
2022-02-01 21:52:00,,0821.2,4.99,0.00,22.5,22.5,00.0,31.4,24.3,11.2,0000.0,0007.33,0001.91,0001.35
2022-02-01 21:53:00,,0821.2,5.02,0.00,22.5,22.3,00.0,31.4,24.2,11.2,0000.0,0008.03,0001.88,0001.34
2022-02-01 21:54:00,,0821.2,4.99,0.00,22.5,22.2,00.0,31.4,24.2,11.2,0000.0,0008.22,0001.88,0001.33
2022-02-01 21:55:00,,0821.2,5.01,0.00,22.5,22.0,00.0,31.4,24.1,11.4,0000.0,0008.30,0001.92,0001.34
2022-02-01 21:56:00,,0821.2,5.00,0.00,22.4,21.9,00.0,31.4,24.1,11.6,0000.0,0008.55,0001.89,0001.33
2022-02-01 21:57:00,,0821.2,5.01,0.00,22.4,21.9,00.0,31.4,24.1,11.7,0000.0,0008.54,0001.81,0001.32
2022-02-01 21:58:00,,0821.2,4.99,0.00,22.4,21.8,00.0,31.4,24.0,11.7,0000.0,0008.83,0001.82,0001.32
2022-02-01 21:59:00,,0821.2,5.01,0.00,22.4,21.7,00.0,31.4,24.0,11.7,0000.0,0009.02,0001.87,0001.33
